• Em Portugal
  • Lista de países
  • Para 7 dias
  • Temperatura da água
  • Mapas de satélite
  • Mapa do tempo
  • Widgets de tempo
  • user-avatar
    Iniciar Sessão

    Previsão horária em Diffa

    Hoje, 20 Julho, Sexta-feira

    Tempo Temperatura Precipitação Vento Pressão Humidade
    00:00 +36°C° 0 mm 3 m/s 731 mmHg 33%
    01:00 +36°C° 0 mm 3 m/s 731 mmHg 34%
    02:00 +35°C° 0 mm 3 m/s 731 mmHg 35%
    03:00 +35°C° 0 mm 3 m/s 730 mmHg 36%
    04:00 +34°C° 0 mm 3 m/s 730 mmHg 37%
    05:00 +34°C° 0,1 mm 3 m/s 731 mmHg 38%
    06:00 +34°C° 0,1 mm 3 m/s 731 mmHg 40%
    07:00 +34°C° 0 mm 5 m/s 731 mmHg 42%
    08:00 +35°C° 0 mm 5 m/s 731 mmHg 39%
    09:00 +38°C° 0 mm 6 m/s 731 mmHg 36%
    10:00 +39°C° 0 mm 6 m/s 731 mmHg 33%
    11:00 +40°C° 0 mm 5 m/s 731 mmHg 30%
    12:00 +41°C° 0 mm 4 m/s 731 mmHg 27%
    13:00 +41°C° 0 mm 4 m/s 731 mmHg 29%
    14:00 +40°C° 0 mm 3 m/s 730 mmHg 28%
    15:00 +40°C° 0 mm 2 m/s 730 mmHg 26%
    16:00 +37°C° 0 mm 0 m/s 729 mmHg 25%
    17:00 +40°C° 0 mm 1 m/s 729 mmHg 26%
    18:00 +40°C° 0 mm 1 m/s 729 mmHg 26%
    19:00 +40°C° 0 mm 1 m/s 729 mmHg 26%
    20:00 +39°C° 0 mm 2 m/s 730 mmHg 28%
    21:00 +38°C° 0 mm 2 m/s 730 mmHg 29%
    22:00 +38°C° 0 mm 3 m/s 730 mmHg 30%
    23:00 +37°C° 0 mm 3 m/s 730 mmHg 32%

    Amanhã, 21 Julho, Sábado

    Tempo Temperatura Precipitação Vento Pressão Humidade
    00:00 +36°C° 0 mm 3 m/s 730 mmHg 33%
    01:00 +36°C° 0 mm 4 m/s 730 mmHg 34%
    02:00 +35°C° 0 mm 3 m/s 730 mmHg 36%
    03:00 +35°C° 0 mm 3 m/s 730 mmHg 39%
    04:00 +34°C° 0 mm 3 m/s 730 mmHg 41%
    05:00 +34°C° 0 mm 4 m/s 730 mmHg 43%
    06:00 +33°C° 0 mm 5 m/s 731 mmHg 46%
    07:00 +33°C° 0 mm 6 m/s 731 mmHg 48%
    08:00 +34°C° 0 mm 6 m/s 732 mmHg 45%
    09:00 +36°C° 0 mm 6 m/s 732 mmHg 42%
    10:00 +38°C° 0 mm 7 m/s 733 mmHg 39%
    11:00 +39°C° 0 mm 6 m/s 732 mmHg 36%
    12:00 +40°C° 0 mm 5 m/s 732 mmHg 33%
    13:00 +41°C° 0 mm 4 m/s 732 mmHg 29%
    14:00 +40°C° 0 mm 3 m/s 731 mmHg 28%
    15:00 +41°C° 0 mm 2 m/s 731 mmHg 26%
    16:00 +41°C° 0 mm 2 m/s 730 mmHg 25%
    17:00 +40°C° 0 mm 2 m/s 730 mmHg 26%
    18:00 +40°C° 0 mm 2 m/s 730 mmHg 27%
    19:00 +40°C° 0 mm 2 m/s 731 mmHg 28%
    20:00 +39°C° 0,1 mm 2 m/s 731 mmHg 30%
    21:00 +38°C° 0,1 mm 2 m/s 731 mmHg 32%
    22:00 +38°C° 0,1 mm 3 m/s 732 mmHg 34%
    23:00 +37°C° 0 mm 3 m/s 732 mmHg 37%

    Depois de amanhã, 22 Julho, Domingo

    Tempo Temperatura Precipitação Vento Pressão Humidade
    00:00 +36°C° 0 mm 4 m/s 732 mmHg 41%
    01:00 +35°C° 0 mm 5 m/s 732 mmHg 44%
    02:00 +34°C° 0 mm 5 m/s 732 mmHg 48%
    03:00 +33°C° 0 mm 5 m/s 731 mmHg 51%
    04:00 +33°C° 0 mm 6 m/s 731 mmHg 55%
    05:00 +33°C° 0 mm 6 m/s 731 mmHg 55%
    06:00 +33°C° 0 mm 6 m/s 731 mmHg 55%
    07:00 +33°C° 0 mm 6 m/s 732 mmHg 55%
    08:00 +34°C° 0 mm 6 m/s 732 mmHg 52%
    09:00 +35°C° 0 mm 6 m/s 733 mmHg 48%
    10:00 +36°C° 0 mm 6 m/s 733 mmHg 44%
    11:00 +38°C° 0 mm 6 m/s 733 mmHg 41%
    12:00 +40°C° 0 mm 6 m/s 732 mmHg 38%
    13:00 +41°C° 0 mm 5 m/s 732 mmHg 34%
    14:00 +41°C° 0 mm 5 m/s 731 mmHg 33%
    15:00 +41°C° 0 mm 4 m/s 731 mmHg 32%
    16:00 +41°C° 0 mm 4 m/s 730 mmHg 31%
    17:00 +41°C° 0 mm 4 m/s 730 mmHg 32%
    18:00 +40°C° 0 mm 4 m/s 730 mmHg 33%
    19:00 +40°C° 0 mm 4 m/s 730 mmHg 34%
    20:00 +38°C° 0 mm 4 m/s 731 mmHg 36%
    21:00 +37°C° 0 mm 4 m/s 731 mmHg 38%
    22:00 +36°C° 0 mm 4 m/s 732 mmHg 40%
    23:00 +36°C° 0 mm 4 m/s 731 mmHg 40%

    23 Julho, Segunda-feira

    Tempo Temperatura Precipitação Vento Pressão Humidade
    00:00 +36°C° 0 mm 4 m/s 731 mmHg 41%
    01:00 +35°C° 0 mm 4 m/s 731 mmHg 41%
    02:00 +35°C° 0 mm 4 m/s 731 mmHg 43%
    03:00 +34°C° 0 mm 4 m/s 730 mmHg 45%
    04:00 +34°C° 0 mm 5 m/s 730 mmHg 47%
    05:00 +34°C° 0 mm 5 m/s 731 mmHg 47%
    06:00 +34°C° 0 mm 5 m/s 731 mmHg 48%
    07:00 +34°C° 0 mm 6 m/s 731 mmHg 48%
    08:00 +35°C° 0 mm 6 m/s 732 mmHg 44%
    09:00 +38°C° 0 mm 7 m/s 732 mmHg 40%
    10:00 +40°C° 0 mm 7 m/s 732 mmHg 36%
    11:00 +41°C° 0 mm 7 m/s 732 mmHg 33%
    12:00 +43°C° 0 mm 7 m/s 731 mmHg 31%
    13:00 +44°C° 0 mm 6 m/s 731 mmHg 28%
    14:00 +45°C° 0 mm 6 m/s 730 mmHg 26%
    15:00 +45°C° 0 mm 5 m/s 729 mmHg 24%
    16:00 +44°C° 0 mm 4 m/s 729 mmHg 22%
    17:00 +44°C° 0 mm 3 m/s 729 mmHg 23%
    18:00 +43°C° 0 mm 3 m/s 729 mmHg 24%
    19:00 +42°C° 0 mm 3 m/s 729 mmHg 24%
    20:00 +40°C° 0,2 mm 3 m/s 729 mmHg 28%
    21:00 +40°C° 0,2 mm 4 m/s 729 mmHg 31%
    22:00 +39°C° 0,2 mm 5 m/s 730 mmHg 34%
    23:00 +37°C° 0,2 mm 4 m/s 730 mmHg 35%

    24 Julho, Terça-feira

    Tempo Temperatura Precipitação Vento Pressão Humidade
    00:00 +37°C° 0,2 mm 4 m/s 729 mmHg 37%
    01:00 +37°C° 0,2 mm 4 m/s 729 mmHg 38%
    02:00 +36°C° 0 mm 5 m/s 729 mmHg 43%
    03:00 +35°C° 0 mm 7 m/s 729 mmHg 47%
    04:00 +34°C° 0 mm 9 m/s 729 mmHg 52%
    05:00 +34°C° 0 mm 9 m/s 730 mmHg 54%
    06:00 +33°C° 0 mm 8 m/s 730 mmHg 56%
    07:00 +33°C° 0 mm 8 m/s 731 mmHg 58%
    08:00 +34°C° 0 mm 8 m/s 731 mmHg 54%
    09:00 +35°C° 0 mm 9 m/s 732 mmHg 51%
    10:00 +37°C° 0 mm 9 m/s 732 mmHg 47%
    11:00 +38°C° 0 mm 9 m/s 731 mmHg 44%
    12:00 +39°C° 0 mm 9 m/s 731 mmHg 41%
    13:00 +40°C° 0 mm 8 m/s 731 mmHg 38%
    14:00 +40°C° 0 mm 8 m/s 730 mmHg 36%
    15:00 +40°C° 0 mm 8 m/s 730 mmHg 35%
    16:00 +41°C° 0 mm 8 m/s 729 mmHg 33%
    17:00 +39°C° 0,3 mm 8 m/s 730 mmHg 36%
    18:00 +38°C° 0,3 mm 7 m/s 730 mmHg 38%
    19:00 +36°C° 0,3 mm 7 m/s 730 mmHg 40%
    20:00 +36°C° 0,2 mm 7 m/s 731 mmHg 42%
    21:00 +35°C° 0,2 mm 7 m/s 731 mmHg 44%
    22:00 +34°C° 0,2 mm 7 m/s 731 mmHg 45%
    23:00 +34°C° 0 mm 7 m/s 731 mmHg 47%

    25 Julho, Quarta-feira

    Tempo Temperatura Precipitação Vento Pressão Humidade
    00:00 +33°C° 0 mm 7 m/s 731 mmHg 48%
    01:00 +33°C° 0 mm 7 m/s 731 mmHg 50%
    02:00 +32°C° 0,1 mm 6 m/s 730 mmHg 52%
    03:00 +32°C° 0,1 mm 6 m/s 730 mmHg 54%
    04:00 +30°C° 0,1 mm 5 m/s 730 mmHg 56%
    05:00 +30°C° 0,2 mm 6 m/s 731 mmHg 57%
    06:00 +30°C° 0,2 mm 6 m/s 731 mmHg 59%
    07:00 +30°C° 0,2 mm 6 m/s 732 mmHg 60%
    08:00 +32°C° 0 mm 7 m/s 732 mmHg 57%
    09:00 +33°C° 0 mm 8 m/s 733 mmHg 54%
    10:00 +34°C° 0 mm 8 m/s 733 mmHg 51%
    11:00 +35°C° 0 mm 8 m/s 733 mmHg 47%
    12:00 +38°C° 0 mm 8 m/s 732 mmHg 43%
    13:00 +39°C° 0 mm 8 m/s 732 mmHg 39%
    14:00 +39°C° 0 mm 7 m/s 731 mmHg 38%
    15:00 +39°C° 0 mm 7 m/s 731 mmHg 38%
    16:00 +39°C° 0 mm 7 m/s 730 mmHg 37%
    17:00 +39°C° 0 mm 6 m/s 730 mmHg 38%
    18:00 +38°C° 0 mm 6 m/s 731 mmHg 39%
    19:00 +37°C° 0 mm 5 m/s 731 mmHg 41%
    20:00 +38°C° 0 mm 6 m/s 731 mmHg 42%
    21:00 +36°C° 0 mm 6 m/s 731 mmHg 44%
    22:00 +36°C° 0 mm 6 m/s 731 mmHg 45%
    23:00 +35°C° 0,1 mm 7 m/s 731 mmHg 47%
    Mostrar mais